Edwards AFB North Base, CA

3:46 AM PST on November 20, 2019 (GMT -0800)
Edwards AFB North Base

Weather History for K9L2 - September, 2019

Change the Weather History Date:

Friday, September 27, 2019

  Actual Average (WUND) Record (WUND)
Temperature  
Mean Temperature 77 °F -  
Max Temperature 91 °F - - (-1)
Min Temperature 63 °F - - (-1)
Cooling Degree Days 12    
Growing Degree Days 27 (Base 50)    
Moisture  
Dew Point 52 °F    
Average Humidity 50    
Maximum Humidity 75    
Minimum Humidity 20    
Precipitation  
Precipitation 0.00 in - - ()
Sea Level Pressure  
Sea Level Pressure 29.75 in    
Wind  
Wind Speed 15 mph ()    
Max Wind Speed 22 mph    
Max Gust Speed 30 mph    
Visibility 9.4 miles    
Events      
Averages and records for this station are not official NWS values.
T = Trace of Precipitation, MM = Missing Value Source: Averaged Metar Reports

Daily Weather History Graph

Daily Weather History Graph

Search for Another Location

Airport or City:

Astronomy

Sep. 27, 2019 Rise Set
Actual Time 6:43 AM PDT 6:41 PM PDT
Civil Twilight 6:17 AM PDT 7:06 PM PDT
Nautical Twilight 5:48 AM PDT 7:35 PM PDT
Astronomical Twilight 5:18 AM PDT 8:05 PM PDT
Moon 5:16 AM PDT (9/27) 6:30 PM PDT (9/27)
Length of Visible Light 12h 48m
Length of Day
11h 58m
Waning Crescent, 1% of the Moon is Illuminated
Sep 27
Waning Crescent
Sep 28
New
Oct 5
First Quarter
Oct 13
Full
Oct 21
Last Quarter

Hourly Weather History & Observations

Time (PDT) Temp. Dew Point Humidity Pressure Visibility Wind Dir Wind Speed Gust Speed Precip Events Conditions
12:58 AM 67.1 °F 55.4 °F 66% 29.83 in 10.0 mi South 16.1 mph 21.9 mph N/A   Clear
1:58 AM 66.7 °F 54.9 °F 66% 29.83 in 10.0 mi South 13.8 mph 19.6 mph N/A   Clear
2:58 AM 66.2 °F 54.3 °F 65% 29.80 in 10.0 mi SSW 15.0 mph - N/A   Clear
3:58 AM 65.8 °F 54.5 °F 67% 29.80 in 10.0 mi SSW 17.3 mph - N/A   Clear
4:58 AM 65.3 °F 54.9 °F 69% 29.80 in 10.0 mi South 17.3 mph 27.6 mph N/A   Clear
5:58 AM 64.4 °F 54.5 °F 70% 29.81 in 10.0 mi South 20.7 mph - N/A   Clear
6:58 AM 64.0 °F 54.5 °F 71% 29.87 in 10.0 mi SSW 18.4 mph - N/A   Clear
7:58 AM 65.8 °F 54.1 °F 66% 29.82 in 10.0 mi South 18.4 mph - N/A   Clear
8:58 AM 71.2 °F 54.1 °F 55% 29.82 in 10.0 mi South 18.4 mph - N/A   Clear
9:58 AM 77.2 °F 53.6 °F 44% 29.82 in 10.0 mi South 17.3 mph 23.0 mph N/A   Clear
10:58 AM 82.6 °F 52.3 °F 35% 29.80 in 9.0 mi South 19.6 mph - N/A   Clear
11:29 AM 86.0 °F 48.2 °F 27% 29.77 in 8.0 mi West 15.0 mph - N/A   Clear
11:58 AM 85.5 °F 51.4 °F 31% 29.77 in 9.0 mi South 13.8 mph 26.5 mph N/A   Clear
12:58 PM 88.7 °F 48.6 °F 25% 29.73 in 9.0 mi SW 13.8 mph 26.5 mph N/A   Clear
1:47 PM 91.4 °F 46.4 °F 21% 29.70 in 9.0 mi WSW 13.8 mph - N/A   Clear
1:58 PM 91.4 °F 45.5 °F 20% 29.69 in 8.0 mi SW 12.7 mph 21.9 mph N/A   Clear
2:58 PM 88.2 °F 47.7 °F 25% 29.68 in 8.0 mi SSW 21.9 mph 28.8 mph N/A   Clear
3:58 PM 84.7 °F 51.4 °F 32% 29.68 in 8.0 mi SSW 21.9 mph 26.5 mph N/A   Clear
4:58 PM 81.9 °F 51.6 °F 35% 29.68 in 8.0 mi SSW 20.7 mph 29.9 mph N/A   Clear
5:58 PM 78.8 °F 51.8 °F 39% 29.68 in 9.0 mi SW 18.4 mph - N/A   Clear
6:58 PM 71.6 °F 53.2 °F 52% 29.70 in 10.0 mi South 19.6 mph 25.3 mph N/A   Clear
7:58 PM 67.3 °F 53.8 °F 62% 29.71 in 10.0 mi SSW 13.8 mph - N/A   Clear
9:58 PM 65.5 °F 54.0 °F 66% 29.69 in 10.0 mi SSW 13.8 mph - N/A   Clear
10:58 PM 63.9 °F 54.7 °F 72% 29.69 in 10.0 mi SSW 18.4 mph - N/A   Clear
11:58 PM 63.0 °F 54.9 °F 75% 29.68 in 10.0 mi SSW 21.9 mph 29.9 mph N/A   Clear